• In Netherlands
  • List of Countries
  • For 7 days
  • Water Temperature
  • Satellite Maps
  • Weather Map
  • Weather Widgets
  • user-avatar
    Login

    Hourly Weather Lankaran

    Today, 30 March, Thursday

    Time Temperature Precipitation Wind Pressure Humidity
    00:00 +4°C° 0 mm 1 mps 635 mmHg 73%
    01:00 +3°C° 0 mm 1 mps 635 mmHg 74%
    02:00 +3°C° 0 mm 1 mps 635 mmHg 75%
    03:00 +2°C° 0 mm 1 mps 635 mmHg 76%
    04:00 +2°C° 0 mm 1 mps 635 mmHg 76%
    05:00 +2°C° 0 mm 1 mps 635 mmHg 76%
    06:00 +2°C° 0 mm 1 mps 635 mmHg 77%
    07:00 +4°C° 0 mm 1 mps 635 mmHg 69%
    08:00 +6°C° 0 mm 1 mps 636 mmHg 62%
    09:00 +7°C° 0 mm 2 mps 636 mmHg 55%
    10:00 +8°C° 0 mm 2 mps 636 mmHg 52%
    11:00 +9°C° 0 mm 2 mps 636 mmHg 48%
    12:00 +11°C° 0 mm 3 mps 636 mmHg 45%
    13:00 +11°C° 0 mm 3 mps 635 mmHg 44%
    14:00 +11°C° 0 mm 3 mps 635 mmHg 43%
    15:00 +12°C° 0 mm 3 mps 634 mmHg 41%
    16:00 +11°C° 0 mm 3 mps 634 mmHg 46%
    17:00 +10°C° 0 mm 3 mps 633 mmHg 51%
    18:00 +9°C° 0 mm 2 mps 633 mmHg 56%
    19:00 +8°C° 0 mm 2 mps 632 mmHg 56%
    20:00 +7°C° 0 mm 2 mps 632 mmHg 56%
    21:00 +7°C° 0 mm 2 mps 632 mmHg 56%
    22:00 +6°C° 0 mm 2 mps 632 mmHg 55%
    23:00 +6°C° 0 mm 2 mps 632 mmHg 55%

    Tomorrow, 31 March, Friday

    Time Temperature Precipitation Wind Pressure Humidity
    00:00 +5°C° 0 mm 2 mps 632 mmHg 55%
    01:00 +5°C° 0 mm 2 mps 632 mmHg 55%
    02:00 +5°C° 0 mm 2 mps 632 mmHg 55%
    03:00 +4°C° 0 mm 2 mps 632 mmHg 55%
    04:00 +4°C° 0 mm 2 mps 632 mmHg 57%
    05:00 +4°C° 0 mm 2 mps 632 mmHg 59%
    06:00 +3°C° 0 mm 2 mps 632 mmHg 61%
    07:00 +5°C° 0 mm 2 mps 633 mmHg 56%
    08:00 +7°C° 0 mm 2 mps 634 mmHg 52%
    09:00 +9°C° 0 mm 2 mps 635 mmHg 47%
    10:00 +9°C° 0 mm 3 mps 635 mmHg 47%
    11:00 +10°C° 0 mm 3 mps 635 mmHg 47%
    12:00 +10°C° 0 mm 3 mps 635 mmHg 47%
    13:00 +8°C° 0 mm 4 mps 635 mmHg 52%
    14:00 +8°C° 0 mm 4 mps 634 mmHg 56%
    15:00 +7°C° 0 mm 4 mps 634 mmHg 61%
    16:00 +5°C° 0.1 mm 5 mps 634 mmHg 68%
    17:00 +3°C° 0.1 mm 5 mps 634 mmHg 76%
    18:00 +2°C° 0.1 mm 5 mps 635 mmHg 84%
    19:00 +1°C° 0.9 mm 5 mps 635 mmHg 86%
    20:00 0°C° 0.9 mm 5 mps 635 mmHg 87%
    21:00 0°C° 0.9 mm 5 mps 635 mmHg 89%
    22:00 -1°C° 0.8 mm 5 mps 635 mmHg 89%
    23:00 -1°C° 0.8 mm 5 mps 635 mmHg 90%

    Day after tomorrow, 1 April, Saturday

    Time Temperature Precipitation Wind Pressure Humidity
    00:00 -2°C° 0.8 mm 5 mps 635 mmHg 90%
    01:00 -2°C° 0.7 mm 5 mps 634 mmHg 90%
    02:00 -2°C° 0.7 mm 4 mps 634 mmHg 90%
    03:00 -2°C° 0.7 mm 4 mps 633 mmHg 90%
    04:00 -3°C° 2 mm 4 mps 633 mmHg 91%
    05:00 -2°C° 2 mm 3 mps 633 mmHg 91%
    06:00 -2°C° 2 mm 3 mps 633 mmHg 92%
    07:00 -2°C° 0.3 mm 3 mps 633 mmHg 91%
    08:00 -1°C° 0.3 mm 3 mps 633 mmHg 91%
    09:00 -1°C° 0.3 mm 4 mps 633 mmHg 90%
    10:00 -1°C° 0.2 mm 4 mps 633 mmHg 89%
    11:00 0°C° 0.2 mm 4 mps 633 mmHg 87%
    12:00 +1°C° 0.2 mm 4 mps 633 mmHg 86%
    13:00 +1°C° 0.1 mm 4 mps 632 mmHg 84%
    14:00 +3°C° 0.1 mm 4 mps 632 mmHg 82%
    15:00 +2°C° 0.1 mm 5 mps 632 mmHg 80%
    16:00 +1°C° 0 mm 4 mps 632 mmHg 82%
    17:00 +1°C° 0 mm 4 mps 632 mmHg 85%
    18:00 +1°C° 0 mm 3 mps 632 mmHg 87%
    19:00 +1°C° 0.1 mm 3 mps 632 mmHg 89%
    20:00 0°C° 0.1 mm 3 mps 633 mmHg 90%
    21:00 +1°C° 0.1 mm 2 mps 633 mmHg 92%
    22:00 -1°C° 0.1 mm 2 mps 633 mmHg 92%
    23:00 -1°C° 0.1 mm 2 mps 633 mmHg 92%

    2 April, Sunday

    Time Temperature Precipitation Wind Pressure Humidity
    00:00 -1°C° 0.1 mm 2 mps 633 mmHg 92%
    01:00 -1°C° 0.2 mm 2 mps 633 mmHg 93%
    02:00 -1°C° 0.2 mm 2 mps 633 mmHg 93%
    03:00 -2°C° 0.2 mm 2 mps 633 mmHg 93%
    04:00 -2°C° 0.4 mm 2 mps 633 mmHg 93%
    05:00 -2°C° 0.4 mm 3 mps 634 mmHg 92%
    06:00 -2°C° 0.4 mm 3 mps 634 mmHg 92%
    07:00 -2°C° 0.6 mm 3 mps 635 mmHg 90%
    08:00 -1°C° 0.6 mm 3 mps 635 mmHg 88%
    09:00 -2°C° 0.6 mm 4 mps 636 mmHg 86%
    10:00 -2°C° 0.6 mm 4 mps 636 mmHg 85%
    11:00 -2°C° 0.6 mm 4 mps 636 mmHg 83%
    12:00 -1°C° 0.6 mm 4 mps 636 mmHg 82%
    13:00 -1°C° 0.5 mm 4 mps 636 mmHg 82%
    14:00 -2°C° 0.5 mm 4 mps 636 mmHg 82%
    15:00 -2°C° 0.5 mm 4 mps 636 mmHg 82%
    16:00 -1°C° 0.6 mm 3 mps 636 mmHg 84%
    17:00 -2°C° 0.6 mm 3 mps 637 mmHg 86%
    18:00 -3°C° 0.6 mm 2 mps 637 mmHg 87%
    19:00 -3°C° 0.4 mm 2 mps 637 mmHg 87%
    20:00 -3°C° 0.4 mm 2 mps 637 mmHg 88%
    21:00 -4°C° 0.4 mm 2 mps 637 mmHg 88%
    22:00 -4°C° 0.2 mm 2 mps 637 mmHg 88%
    23:00 -2°C° 0.2 mm 1 mps 637 mmHg 89%

    3 April, Monday

    Time Temperature Precipitation Wind Pressure Humidity
    00:00 -2°C° 0.2 mm 1 mps 636 mmHg 89%
    01:00 -2°C° 0.1 mm 1 mps 636 mmHg 89%
    02:00 -2°C° 0.1 mm 1 mps 636 mmHg 89%
    03:00 -3°C° 0.1 mm 1 mps 636 mmHg 89%
    04:00 -2°C° 0.2 mm 1 mps 636 mmHg 88%
    05:00 -2°C° 0.2 mm 1 mps 636 mmHg 87%
    06:00 -2°C° 0.2 mm 1 mps 636 mmHg 87%
    07:00 -1°C° 0.2 mm 1 mps 636 mmHg 83%
    08:00 0°C° 0.2 mm 1 mps 636 mmHg 80%
    09:00 +1°C° 0.2 mm 1 mps 636 mmHg 76%
    10:00 +1°C° 0.2 mm 1 mps 636 mmHg 75%
    11:00 +1°C° 0.2 mm 2 mps 636 mmHg 75%
    12:00 +1°C° 0.2 mm 2 mps 636 mmHg 75%
    13:00 +2°C° 0.1 mm 2 mps 635 mmHg 75%
    14:00 +2°C° 0.1 mm 2 mps 635 mmHg 75%
    15:00 +2°C° 0.1 mm 2 mps 635 mmHg 75%
    16:00 +1°C° 0.1 mm 2 mps 635 mmHg 78%
    17:00 -1°C° 0.1 mm 2 mps 635 mmHg 80%
    18:00 -2°C° 0.1 mm 2 mps 635 mmHg 83%
    19:00 -2°C° 0 mm 2 mps 635 mmHg 84%
    20:00 -3°C° 0 mm 2 mps 635 mmHg 85%
    21:00 -4°C° 0 mm 2 mps 635 mmHg 85%
    22:00 -4°C° 0 mm 2 mps 634 mmHg 83%
    23:00 -4°C° 0 mm 2 mps 634 mmHg 81%

    4 April, Tuesday

    Time Temperature Precipitation Wind Pressure Humidity
    00:00 -4°C° 0 mm 2 mps 634 mmHg 79%
    01:00 -4°C° 0 mm 2 mps 634 mmHg 77%
    02:00 -5°C° 0 mm 2 mps 634 mmHg 74%
    03:00 -5°C° 0 mm 2 mps 633 mmHg 71%
    04:00 -5°C° 0 mm 2 mps 634 mmHg 67%
    05:00 -5°C° 0 mm 2 mps 634 mmHg 63%
    06:00 -5°C° 0 mm 2 mps 634 mmHg 59%
    07:00 -3°C° 0 mm 2 mps 635 mmHg 55%
    08:00 +1°C° 0 mm 2 mps 635 mmHg 52%
    09:00 +4°C° 0 mm 2 mps 636 mmHg 48%
    10:00 +4°C° 0 mm 2 mps 636 mmHg 48%
    11:00 +5°C° 0 mm 2 mps 636 mmHg 47%
    12:00 +6°C° 0 mm 2 mps 636 mmHg 46%
    13:00 +6°C° 0 mm 2 mps 636 mmHg 47%
    14:00 +6°C° 0 mm 2 mps 635 mmHg 48%
    15:00 +7°C° 0 mm 3 mps 635 mmHg 49%
    16:00 +4°C° 0 mm 2 mps 635 mmHg 51%
    17:00 +2°C° 0 mm 2 mps 634 mmHg 52%
    18:00 -1°C° 0 mm 2 mps 634 mmHg 53%
    19:00 -2°C° 0 mm 2 mps 634 mmHg 50%
    20:00 -3°C° 0 mm 2 mps 634 mmHg 47%
    21:00 -3°C° 0 mm 2 mps 634 mmHg 44%
    22:00 -3°C° 0 mm 2 mps 634 mmHg 42%
    23:00 -4°C° 0 mm 2 mps 634 mmHg 40%
    Show more